Regional Weather Roundup
Issued by NWS

Home | Current Version | Previous Version | Graphics & Text | Print | Product List | Glossary On
Versions: 1 2 3 4 5 6 7 8 9 10 11 12 13 14 15 16 17 18 19 20 21 22 23 24 25 26 27 28 29 30 31 32 33 34 35 36 37 38 39 40 41 42 43 44 45 46 47 48 49 50
000
ASUS43 KLSX 152359
RWRMO

WEATHER SUMMARY FOR MISSOURI
NATIONAL WEATHER SERVICE SPRINGFIELD MO
700 PM CDT MON SEP 15 2014

NOTE: "FAIR" INDICATES FEW OR NO CLOUDS BELOW 12,000 FEET WITH NO
       SIGNIFICANT WEATHER AND/OR OBSTRUCTIONS TO VISIBILITY.
       CURRENT SKY AND/OR WEATHER CONDITIONS ARE NOT AVAILABLE FOR
       CHILLICOTHE AND FARMINGTON.

MOZ001>031-035>038-043-044-053-054-160100-
...NORTHERN AND WESTERN MISSOURI...

CITY           SKY/WX    TMP DP  RH WIND       PRES   REMARKS
KANSAS CTY INT MOCLDY    62  53  72 N10       30.19R
6HR MIN TEMP:  62; 6HR MAX TEMP:  69; 6HR PCP: TRACE;

KANSAS C DTWN  CLOUDY    64  54  69 N12       30.18R
6HR MIN TEMP:  64; 6HR MAX TEMP:  70;

LEE`S SUMMIT   CLOUDY    63  56  78 N17G24    30.18R
6HR MIN TEMP:  63; 6HR MAX TEMP:  71;

ST JOSEPH      PTCLDY    61  51  70 NE9       30.21R
6HR MIN TEMP:  61; 6HR MAX TEMP:  71;

KIRKSVILLE     CLOUDY    59  52  77 N14G20    30.18R
6HR MIN TEMP:  59; 6HR MAX TEMP:  67;


$$
MOZ066>068-077>081-088>096-101>105-160100-
...SOUTHWEST MISSOURI...

CITY           SKY/WX    TMP DP  RH WIND       PRES   REMARKS
SPRINGFIELD    CLOUDY    76  67  73 N15       30.10R
6HR MIN TEMP:  76; 6HR MAX TEMP:  86;

JOPLIN         TSTM      71  70  96 N8        30.11R VSB 1/4
6HR MIN TEMP:  71; 6HR MAX TEMP:  84; 6HR PCP:  0.69;


$$
MOZ032>034-039>042-045>050-055>058-069>072-160100-
...CENTRAL MISSOURI...

CITY           SKY/WX    TMP DP  RH WIND       PRES   REMARKS
COLUMBIA       CLOUDY    65  60  84 N9        30.14R
6HR MIN TEMP:  65; 6HR MAX TEMP:  77; 6HR PCP: TRACE;

JEFFERSON CITY CLOUDY    67  61  81 N7        30.12R
6HR MIN TEMP:  67; 6HR MAX TEMP:  77; 6HR PCP: TRACE;

ROLLA          CLOUDY    68  65  90 N9        30.10R
6HR MIN TEMP:  68; 6HR MAX TEMP:  80;

SEDALIA        CLOUDY    66  60  81 N8        30.15R
6HR MIN TEMP:  66; 6HR MAX TEMP:  73; 6HR PCP: TRACE;

WHITEMAN AFB   CLOUDY    66  62  86 N7        30.13S
OSAGE BEACH    CLOUDY    70  63  78 N8        30.12R

$$
MOZ051-052-059>065-160100-
...EAST CENTRAL MISSOURI...

CITY           SKY/WX    TMP DP  RH WIND       PRES   REMARKS
ST LOUIS INTL  LGT RAIN  66  63  90 NW13      30.09R FOG
6HR MIN TEMP:  66; 6HR MAX TEMP:  78; 6HR PCP:  0.03;

SPIRIT OF STL  LGT RAIN  66  63  90 N12       30.09R FOG
6HR MIN TEMP:  66; 6HR MAX TEMP:  77; 6HR PCP:  0.03;

ST CHARLES     CLOUDY    64  62  93 N9        30.09R
6HR MIN TEMP:  64; 6HR MAX TEMP:  75; 6HR PCP:  0.03;


$$
MOZ072>076-082>087-097>100-106>115-160100-
...SOUTH CENTRAL AND SOUTHEAST MISSOURI...

CITY           SKY/WX    TMP DP  RH WIND       PRES   REMARKS
CAPE GIRARDEAU MOCLDY    72  65  78 SW5       30.05F
6HR MIN TEMP:  72; 6HR MAX TEMP:  77;

FARMINGTON     CLOUDY    73  66  78 N6        30.09S
6HR MIN TEMP:  72; 6HR MAX TEMP:  81;

POPLAR BLUFF   CLEAR     71  64  78 S7        30.06F
6HR MIN TEMP:  71; 6HR MAX TEMP:  76;

WEST PLAINS    CLEAR     76  66  71 SW5       30.10S
6HR MIN TEMP:  72; 6HR MAX TEMP:  80;


$$


USA.gov is the U.S. government's official web portal to all federal, state and local government web resources and services.